WZZ6PM EPWA-LGIR

Flight info

Callsign WZZ6PM
Flight time 2h 26m
Altitude 35000
Route EVINA DCT KOTEK DCT KEKED/N0439F370 DCT VERIG DCT LOMOS DCT NIKTI DCT KOROS/N0438F360 DCT NEVRA/N0435F370 UT514 GIVIS T514 XAVIS
Aircraft A21N/M-SDE2E3FGHIRWXY/LB1

Departure

Time 2026-05-06 08:11
Airport Warsaw Chopin Airport (EPWA)

Arrival

Time 2026-05-06 10:38
Airport Heraklion International Nikos Kazantzakis Airport (LGIR)
Time Latitude Longitude Altitude Speed Heading
2026-05-06 07:27 52.17473 20.96943 365 ft 0 kts 242°
2026-05-06 08:00 52.17477 20.96956 365 ft 2 kts 242°
2026-05-06 08:00 52.17484 20.96977 365 ft 2 kts 242°
2026-05-06 08:00 52.17491 20.96999 365 ft 2 kts 242°
2026-05-06 08:01 52.17498 20.97021 365 ft 2 kts 244°
2026-05-06 08:01 52.17500 20.97045 365 ft 2 kts 289°
2026-05-06 08:01 52.17491 20.97066 365 ft 2 kts 323°
2026-05-06 08:01 52.17485 20.97072 365 ft 0 kts 337°
2026-05-06 08:05 52.17487 20.97070 365 ft 1 kts 337°
2026-05-06 08:06 52.17512 20.97054 365 ft 4 kts 337°
2026-05-06 08:06 52.17545 20.97023 365 ft 6 kts 328°
2026-05-06 08:06 52.17587 20.96981 365 ft 7 kts 328°
2026-05-06 08:06 52.17628 20.96924 365 ft 8 kts 285°
2026-05-06 08:07 52.17602 20.96827 365 ft 10 kts 237°
2026-05-06 08:07 52.17562 20.96729 365 ft 10 kts 237°
2026-05-06 08:07 52.17523 20.96622 365 ft 11 kts 240°
2026-05-06 08:07 52.17474 20.96519 365 ft 11 kts 234°
2026-05-06 08:08 52.17438 20.96399 365 ft 11 kts 265°
2026-05-06 08:08 52.17493 20.96309 365 ft 12 kts 333°
2026-05-06 08:08 52.17587 20.96228 365 ft 16 kts 332°
2026-05-06 08:08 52.17688 20.96140 365 ft 16 kts 332°
2026-05-06 08:09 52.17789 20.96049 365 ft 16 kts 321°
2026-05-06 08:09 52.17852 20.95899 365 ft 14 kts 302°
2026-05-06 08:09 52.17896 20.95759 365 ft 13 kts 274°
2026-05-06 08:09 52.17853 20.95632 365 ft 11 kts 208°
2026-05-06 08:10 52.17779 20.95660 365 ft 11 kts 149°
2026-05-06 08:10 52.17688 20.95739 365 ft 22 kts 152°
2026-05-06 08:10 52.17318 20.96064 365 ft 97 kts 151°
2026-05-06 08:10 52.16527 20.96752 366 ft 158 kts 152°
2026-05-06 08:11 52.15459 20.97704 639 ft 184 kts 152°
2026-05-06 08:11 52.14341 20.98701 1402 ft 183 kts 153°
2026-05-06 08:11 52.13267 20.99628 2220 ft 175 kts 153°
2026-05-06 08:11 52.12149 21.00484 2601 ft 185 kts 166°
2026-05-06 08:12 52.10844 21.00297 2878 ft 199 kts 204°
2026-05-06 08:12 52.09606 20.99158 3195 ft 214 kts 209°
2026-05-06 08:12 52.08234 20.97908 3449 ft 236 kts 208°
2026-05-06 08:12 52.06756 20.96579 3827 ft 252 kts 208°
2026-05-06 08:13 52.05197 20.95175 4443 ft 260 kts 208°
2026-05-06 08:13 52.03642 20.93771 5227 ft 260 kts 208°
2026-05-06 08:13 52.02066 20.92347 6027 ft 260 kts 208°
2026-05-06 08:13 52.00512 20.90944 6787 ft 261 kts 208°
2026-05-06 08:14 51.98929 20.89517 7542 ft 262 kts 208°
2026-05-06 08:14 51.97341 20.88087 8277 ft 264 kts 208°
2026-05-06 08:14 51.95736 20.86641 9013 ft 266 kts 208°
2026-05-06 08:14 51.94126 20.85191 9725 ft 267 kts 208°
2026-05-06 08:15 51.92497 20.83725 10293 ft 274 kts 208°
2026-05-06 08:15 51.90788 20.82188 10598 ft 290 kts 209°
2026-05-06 08:15 51.88986 20.80568 10934 ft 304 kts 209°
2026-05-06 08:15 51.87126 20.78897 11519 ft 309 kts 209°
2026-05-06 08:16 51.85230 20.77197 12180 ft 312 kts 209°
2026-05-06 08:16 51.83335 20.75498 12816 ft 315 kts 209°
2026-05-06 08:16 51.81426 20.73789 13410 ft 318 kts 209°
2026-05-06 08:16 51.79496 20.72062 14006 ft 321 kts 209°
2026-05-06 08:17 51.77542 20.70318 14591 ft 324 kts 210°
2026-05-06 08:17 51.75570 20.68556 15180 ft 326 kts 210°
2026-05-06 08:17 51.73597 20.66796 15733 ft 329 kts 210°
2026-05-06 08:17 51.71588 20.65006 16283 ft 331 kts 210°
2026-05-06 08:18 51.69577 20.63215 16817 ft 334 kts 210°
2026-05-06 08:18 51.67541 20.61404 17349 ft 336 kts 210°
2026-05-06 08:18 51.65498 20.59588 17870 ft 339 kts 210°
2026-05-06 08:18 51.63417 20.57741 18386 ft 341 kts 210°
2026-05-06 08:19 51.61338 20.55898 18881 ft 344 kts 210°
2026-05-06 08:19 51.59248 20.54046 19351 ft 347 kts 210°
2026-05-06 08:19 51.57141 20.52182 19820 ft 349 kts 211°
2026-05-06 08:19 51.55024 20.50311 20263 ft 352 kts 210°
2026-05-06 08:20 51.52868 20.48407 20704 ft 355 kts 211°
2026-05-06 08:20 51.50716 20.46510 21137 ft 358 kts 211°
2026-05-06 08:20 51.48519 20.44575 21574 ft 360 kts 211°
2026-05-06 08:20 51.46330 20.42649 21989 ft 363 kts 211°
2026-05-06 08:21 51.44100 20.40690 22407 ft 365 kts 211°
2026-05-06 08:21 51.41887 20.38748 22813 ft 367 kts 210°
2026-05-06 08:21 51.39566 20.37072 23177 ft 372 kts 202°
2026-05-06 08:21 51.37034 20.35927 23570 ft 377 kts 195°
2026-05-06 08:22 51.34452 20.35348 23962 ft 381 kts 189°
2026-05-06 08:22 51.31813 20.34937 24360 ft 382 kts 188°
2026-05-06 08:22 51.29179 20.34549 24725 ft 385 kts 188°
2026-05-06 08:22 51.26501 20.34158 25077 ft 387 kts 188°
2026-05-06 08:23 51.23805 20.33761 25435 ft 389 kts 188°
2026-05-06 08:23 51.21130 20.33366 25788 ft 391 kts 188°
2026-05-06 08:23 51.18408 20.32964 26125 ft 393 kts 187°
2026-05-06 08:23 51.15697 20.32564 26448 ft 395 kts 187°
2026-05-06 08:24 51.12976 20.32163 26768 ft 397 kts 187°
2026-05-06 08:24 51.10207 20.31754 27078 ft 399 kts 187°
2026-05-06 08:24 51.07432 20.31346 27397 ft 401 kts 187°
2026-05-06 08:24 51.04682 20.30942 27711 ft 403 kts 187°
2026-05-06 08:25 51.01879 20.30530 28020 ft 404 kts 187°
2026-05-06 08:25 50.99062 20.30116 28311 ft 406 kts 187°
2026-05-06 08:25 50.96264 20.29705 28604 ft 408 kts 187°
2026-05-06 08:25 50.93462 20.29293 28887 ft 410 kts 187°
2026-05-06 08:26 50.90610 20.28876 29174 ft 412 kts 187°
2026-05-06 08:26 50.87734 20.28455 29472 ft 413 kts 187°
2026-05-06 08:26 50.84873 20.28037 29761 ft 415 kts 187°
2026-05-06 08:26 50.82014 20.27621 30034 ft 417 kts 187°
2026-05-06 08:27 50.79122 20.27201 30316 ft 418 kts 187°
2026-05-06 08:27 50.76216 20.26777 30591 ft 420 kts 187°
2026-05-06 08:27 50.73338 20.26373 30855 ft 421 kts 186°
2026-05-06 08:27 50.70396 20.26181 31098 ft 424 kts 182°
2026-05-06 08:28 50.67438 20.26284 31346 ft 427 kts 179°
2026-05-06 08:28 50.64480 20.26689 31663 ft 428 kts 175°
2026-05-06 08:28 50.61555 20.27389 32000 ft 428 kts 172°
2026-05-06 08:28 50.58659 20.28384 32328 ft 429 kts 168°
2026-05-06 08:29 50.55785 20.29681 32662 ft 429 kts 165°
2026-05-06 08:29 50.52985 20.31113 32997 ft 428 kts 165°
2026-05-06 08:29 50.50133 20.32566 33276 ft 429 kts 165°
2026-05-06 08:29 50.47308 20.34001 33490 ft 430 kts 165°
2026-05-06 08:30 50.44477 20.35439 33704 ft 432 kts 165°
2026-05-06 08:30 50.41645 20.36876 33932 ft 432 kts 165°
2026-05-06 08:30 50.38776 20.38331 34152 ft 433 kts 165°
2026-05-06 08:30 50.35910 20.39782 34369 ft 434 kts 165°
2026-05-06 08:31 50.33027 20.41240 34593 ft 435 kts 165°
2026-05-06 08:31 50.30184 20.42677 34762 ft 436 kts 165°
2026-05-06 08:31 50.24417 20.45585 34785 ft 436 kts 165°
2026-05-06 08:32 50.18634 20.48494 34785 ft 437 kts 165°
2026-05-06 08:32 50.12891 20.51374 34787 ft 437 kts 165°
2026-05-06 08:33 50.07085 20.54281 34790 ft 438 kts 165°
2026-05-06 08:33 50.01332 20.57155 34792 ft 438 kts 165°
2026-05-06 08:34 49.92641 20.61480 34801 ft 439 kts 165°
2026-05-06 08:35 49.86824 20.64366 34800 ft 439 kts 165°
2026-05-06 08:35 49.81009 20.67242 34811 ft 440 kts 166°
2026-05-06 08:36 49.75198 20.70110 34818 ft 440 kts 165°
2026-05-06 08:36 49.69381 20.72972 34817 ft 440 kts 165°
2026-05-06 08:37 49.63547 20.75839 34815 ft 441 kts 165°
2026-05-06 08:37 49.57731 20.78687 34831 ft 442 kts 165°
2026-05-06 08:38 49.51897 20.81539 34835 ft 442 kts 165°
2026-05-06 08:38 49.46048 20.84389 34848 ft 443 kts 165°
2026-05-06 08:39 49.40171 20.87247 34855 ft 444 kts 165°
2026-05-06 08:39 49.34290 20.90099 34857 ft 444 kts 165°
2026-05-06 08:40 49.28414 20.92940 34871 ft 445 kts 165°
2026-05-06 08:40 49.22510 20.95790 34873 ft 445 kts 165°
2026-05-06 08:41 49.16589 20.98640 34869 ft 446 kts 165°
2026-05-06 08:41 49.10716 21.01460 34877 ft 446 kts 165°
2026-05-06 08:42 49.04775 21.04305 34883 ft 447 kts 165°
2026-05-06 08:42 48.98862 21.07128 34886 ft 448 kts 165°
2026-05-06 08:43 48.92947 21.09948 34890 ft 449 kts 165°
2026-05-06 08:43 48.86985 21.12783 34897 ft 449 kts 165°
2026-05-06 08:44 48.81038 21.15602 34965 ft 452 kts 165°
2026-05-06 08:44 48.78041 21.17022 35186 ft 451 kts 165°
2026-05-06 08:44 48.75068 21.18427 35446 ft 450 kts 165°
2026-05-06 08:44 48.72097 21.19830 35678 ft 449 kts 165°
2026-05-06 08:45 48.69120 21.21235 35878 ft 449 kts 165°
2026-05-06 08:45 48.66128 21.22645 36071 ft 448 kts 165°
2026-05-06 08:45 48.63162 21.24040 36252 ft 448 kts 165°
2026-05-06 08:45 48.60206 21.25428 36426 ft 448 kts 165°
2026-05-06 08:46 48.57212 21.26831 36628 ft 448 kts 165°
2026-05-06 08:46 48.54262 21.28211 36837 ft 448 kts 166°
2026-05-06 08:46 48.51292 21.29444 36907 ft 447 kts 169°
2026-05-06 08:47 48.45236 21.31454 36916 ft 447 kts 170°
2026-05-06 08:47 48.39156 21.33449 36921 ft 447 kts 170°
2026-05-06 08:48 48.33089 21.35436 36920 ft 448 kts 170°
2026-05-06 08:48 48.27034 21.37414 36914 ft 449 kts 170°
2026-05-06 08:49 48.20948 21.39400 36914 ft 449 kts 171°
2026-05-06 08:49 48.14821 21.41391 36924 ft 449 kts 171°
2026-05-06 08:50 48.08755 21.43358 36924 ft 449 kts 171°
2026-05-06 08:50 48.02678 21.45321 36923 ft 450 kts 170°
2026-05-06 08:51 47.96572 21.47291 36929 ft 451 kts 170°
2026-05-06 08:51 47.90452 21.49260 36931 ft 452 kts 171°
2026-05-06 08:52 47.84286 21.51240 36936 ft 452 kts 170°
2026-05-06 08:52 47.78167 21.53202 36937 ft 452 kts 170°
2026-05-06 08:53 47.72003 21.55171 36935 ft 452 kts 170°
2026-05-06 08:53 47.65883 21.57122 36945 ft 452 kts 171°
2026-05-06 08:54 47.59761 21.59069 36947 ft 453 kts 171°
2026-05-06 08:54 47.53585 21.61027 36952 ft 454 kts 171°
2026-05-06 08:55 47.47453 21.62968 36955 ft 454 kts 171°
2026-05-06 08:55 47.41254 21.64924 36951 ft 455 kts 171°
2026-05-06 08:56 47.35077 21.66870 36956 ft 455 kts 171°
2026-05-06 08:56 47.28910 21.68809 36957 ft 455 kts 171°
2026-05-06 08:57 47.22715 21.70750 36954 ft 455 kts 171°
2026-05-06 08:57 47.16529 21.72872 36956 ft 458 kts 167°
2026-05-06 08:58 47.10485 21.75729 36959 ft 460 kts 165°
2026-05-06 08:58 47.04410 21.78677 36963 ft 460 kts 165°
2026-05-06 08:59 46.98341 21.81612 36969 ft 460 kts 165°
2026-05-06 08:59 46.92294 21.84530 36975 ft 460 kts 165°
2026-05-06 09:00 46.86224 21.87450 36979 ft 460 kts 165°
2026-05-06 09:00 46.80149 21.90366 36981 ft 461 kts 165°
2026-05-06 09:01 46.74145 21.93242 36981 ft 462 kts 165°
2026-05-06 09:01 46.68035 21.96160 36982 ft 462 kts 165°
2026-05-06 09:02 46.61947 21.99064 36982 ft 462 kts 165°
2026-05-06 09:02 46.55851 22.01964 36982 ft 462 kts 165°
2026-05-06 09:03 46.49763 22.04852 36991 ft 462 kts 165°
2026-05-06 09:03 46.43697 22.07723 36995 ft 463 kts 165°
2026-05-06 09:04 46.37583 22.10608 36998 ft 463 kts 165°
2026-05-06 09:04 46.31473 22.13486 36999 ft 463 kts 165°
2026-05-06 09:05 46.25330 22.16374 36997 ft 463 kts 165°
2026-05-06 09:05 46.19240 22.19228 36990 ft 464 kts 165°
2026-05-06 09:06 46.13089 22.22105 36993 ft 464 kts 165°
2026-05-06 09:06 46.06971 22.24962 36988 ft 465 kts 165°
2026-05-06 09:07 46.00820 22.27825 36990 ft 466 kts 165°
2026-05-06 09:07 45.94674 22.30677 36992 ft 466 kts 165°
2026-05-06 09:08 45.88522 22.33529 36997 ft 466 kts 165°
2026-05-06 09:08 45.82354 22.36380 37003 ft 466 kts 164°
2026-05-06 09:09 45.76208 22.39216 37011 ft 466 kts 164°
2026-05-06 09:09 45.70041 22.42055 37016 ft 467 kts 164°
2026-05-06 09:10 45.63879 22.44884 37018 ft 467 kts 164°
2026-05-06 09:10 45.57772 22.47681 37020 ft 467 kts 165°
2026-05-06 09:11 45.51581 22.50511 37017 ft 467 kts 165°
2026-05-06 09:11 45.45437 22.53312 37017 ft 468 kts 165°
2026-05-06 09:12 45.39250 22.56126 37029 ft 468 kts 164°
2026-05-06 09:12 45.33058 22.58934 37032 ft 468 kts 164°
2026-05-06 09:13 45.26874 22.61735 37043 ft 468 kts 164°
2026-05-06 09:13 45.20653 22.64548 37051 ft 468 kts 164°
2026-05-06 09:14 45.14495 22.67325 37049 ft 468 kts 165°
2026-05-06 09:14 45.08240 22.70137 37043 ft 469 kts 165°
2026-05-06 09:15 45.02020 22.72925 37030 ft 470 kts 165°
2026-05-06 09:15 44.95817 22.75702 37023 ft 470 kts 165°
2026-05-06 09:16 44.89556 22.78500 37012 ft 471 kts 165°
2026-05-06 09:16 44.86465 22.79878 37238 ft 471 kts 165°
2026-05-06 09:16 44.83329 22.81274 37089 ft 470 kts 165°
2026-05-06 09:17 44.77275 22.83964 37028 ft 470 kts 165°
2026-05-06 09:17 44.71032 22.86734 36648 ft 470 kts 165°
2026-05-06 09:17 44.67945 22.88103 37056 ft 471 kts 165°
2026-05-06 09:18 44.64832 22.89481 37016 ft 471 kts 165°
2026-05-06 09:18 44.58579 22.92242 37008 ft 471 kts 165°
2026-05-06 09:19 44.52325 22.94999 37010 ft 472 kts 165°
2026-05-06 09:19 44.46092 22.97739 37004 ft 473 kts 165°
2026-05-06 09:20 44.39829 23.00485 37009 ft 474 kts 165°
2026-05-06 09:20 44.33543 23.03239 37008 ft 474 kts 165°
2026-05-06 09:21 44.27259 23.05981 37005 ft 474 kts 165°
2026-05-06 09:21 44.20993 23.08712 37004 ft 474 kts 165°
2026-05-06 09:22 44.14671 23.11460 37005 ft 475 kts 165°
2026-05-06 09:22 44.08503 23.14136 37002 ft 475 kts 165°
2026-05-06 09:23 44.02195 23.16868 36999 ft 476 kts 165°
2026-05-06 09:23 43.95893 23.19590 37001 ft 476 kts 165°
2026-05-06 09:24 43.89585 23.22307 37004 ft 477 kts 165°
2026-05-06 09:24 43.83235 23.25035 37008 ft 476 kts 165°
2026-05-06 09:25 43.76887 23.27588 37015 ft 477 kts 166°
2026-05-06 09:25 43.70513 23.30078 36810 ft 476 kts 166°
2026-05-06 09:25 43.67352 23.31315 36956 ft 477 kts 166°
2026-05-06 09:26 43.64151 23.32571 36998 ft 478 kts 166°
2026-05-06 09:26 43.57748 23.35085 37014 ft 478 kts 166°
2026-05-06 09:27 43.51381 23.37581 37023 ft 479 kts 166°
2026-05-06 09:27 43.45000 23.40078 37019 ft 479 kts 166°
2026-05-06 09:28 43.38560 23.42592 37026 ft 480 kts 166°
2026-05-06 09:28 43.32172 23.45081 37031 ft 480 kts 166°
2026-05-06 09:29 43.25782 23.47565 37034 ft 480 kts 166°
2026-05-06 09:29 43.19343 23.50065 37034 ft 480 kts 166°
2026-05-06 09:30 43.12921 23.52548 37058 ft 480 kts 166°
2026-05-06 09:30 43.06542 23.55013 37063 ft 480 kts 166°
2026-05-06 09:31 43.00092 23.57499 37077 ft 481 kts 166°
2026-05-06 09:31 42.93672 23.59969 37076 ft 482 kts 166°
2026-05-06 09:32 42.87238 23.62437 37064 ft 482 kts 166°
2026-05-06 09:32 42.80794 23.64905 37058 ft 483 kts 166°
2026-05-06 09:33 42.74295 23.67388 37058 ft 483 kts 167°
2026-05-06 09:33 42.67871 23.69837 37060 ft 483 kts 167°
2026-05-06 09:34 42.61386 23.72304 37059 ft 484 kts 167°
2026-05-06 09:34 42.54932 23.74754 37060 ft 484 kts 167°
2026-05-06 09:35 42.48414 23.77222 37066 ft 485 kts 167°
2026-05-06 09:35 42.41951 23.79666 37066 ft 486 kts 167°
2026-05-06 09:36 42.35447 23.82118 37074 ft 487 kts 166°
2026-05-06 09:36 42.28943 23.84568 37077 ft 486 kts 167°
2026-05-06 09:37 42.22421 23.87014 37082 ft 487 kts 166°
2026-05-06 09:37 42.15864 23.89472 37085 ft 488 kts 166°
2026-05-06 09:38 42.09307 23.91924 37087 ft 490 kts 166°
2026-05-06 09:38 42.02748 23.94371 37094 ft 490 kts 166°
2026-05-06 09:39 41.96198 23.96812 37096 ft 490 kts 166°
2026-05-06 09:39 41.89625 23.99254 37098 ft 490 kts 166°
2026-05-06 09:40 41.83088 24.01677 37093 ft 490 kts 167°
2026-05-06 09:40 41.73202 24.05331 37092 ft 491 kts 167°
2026-05-06 09:41 41.66656 24.07681 37086 ft 490 kts 169°
2026-05-06 09:41 41.59986 24.09513 37084 ft 489 kts 171°
2026-05-06 09:42 41.53323 24.11266 37081 ft 490 kts 171°
2026-05-06 09:42 41.46635 24.13060 37077 ft 489 kts 171°
2026-05-06 09:43 41.39948 24.14678 37075 ft 490 kts 173°
2026-05-06 09:43 41.33241 24.16164 37068 ft 490 kts 173°
2026-05-06 09:44 41.26532 24.17668 37069 ft 490 kts 173°
2026-05-06 09:44 41.19829 24.19178 37067 ft 490 kts 173°
2026-05-06 09:45 41.13091 24.20701 37057 ft 490 kts 173°
2026-05-06 09:45 41.06428 24.22206 37052 ft 489 kts 173°
2026-05-06 09:46 40.99677 24.23727 37044 ft 490 kts 173°
2026-05-06 09:46 40.92989 24.25228 37046 ft 491 kts 173°
2026-05-06 09:47 40.86248 24.26742 37044 ft 491 kts 173°
2026-05-06 09:47 40.79499 24.28255 37044 ft 490 kts 173°
2026-05-06 09:48 40.72809 24.29749 37044 ft 490 kts 173°
2026-05-06 09:48 40.66059 24.31253 37042 ft 491 kts 173°
2026-05-06 09:49 40.59373 24.32743 37045 ft 490 kts 173°
2026-05-06 09:49 40.52661 24.34232 37044 ft 490 kts 173°
2026-05-06 09:50 40.45914 24.35728 37046 ft 490 kts 173°
2026-05-06 09:50 40.39215 24.37209 37050 ft 490 kts 173°
2026-05-06 09:51 40.32512 24.38689 37056 ft 490 kts 173°
2026-05-06 09:51 40.25779 24.40172 37052 ft 490 kts 173°
2026-05-06 09:52 40.19091 24.41643 37056 ft 491 kts 173°
2026-05-06 09:52 40.12349 24.43120 37055 ft 491 kts 173°
2026-05-06 09:53 40.05616 24.44597 37054 ft 490 kts 173°
2026-05-06 09:53 39.98902 24.46063 37059 ft 491 kts 173°
2026-05-06 09:54 39.92214 24.47522 37058 ft 490 kts 173°
2026-05-06 09:54 39.85450 24.48994 37057 ft 490 kts 173°
2026-05-06 09:55 39.78759 24.50447 37051 ft 490 kts 173°
2026-05-06 09:55 39.72040 24.51903 37060 ft 490 kts 173°
2026-05-06 09:56 39.65315 24.53360 37060 ft 489 kts 173°
2026-05-06 09:56 39.58630 24.54804 37057 ft 489 kts 173°
2026-05-06 09:57 39.51896 24.56255 37058 ft 489 kts 173°
2026-05-06 09:57 39.45221 24.57690 37059 ft 489 kts 173°
2026-05-06 09:58 39.38523 24.59129 37055 ft 488 kts 173°
2026-05-06 09:58 39.31809 24.60566 37059 ft 489 kts 173°
2026-05-06 09:59 39.25148 24.61990 37056 ft 488 kts 173°
2026-05-06 09:59 39.18439 24.63423 37053 ft 488 kts 173°
2026-05-06 10:00 39.11726 24.64852 37062 ft 488 kts 173°
2026-05-06 10:00 39.05057 24.66271 37055 ft 488 kts 174°
2026-05-06 10:01 38.98338 24.67697 37057 ft 488 kts 174°
2026-05-06 10:01 38.91658 24.69111 37058 ft 487 kts 174°
2026-05-06 10:02 38.84973 24.70525 37053 ft 487 kts 174°
2026-05-06 10:02 38.78308 24.71931 37055 ft 486 kts 174°
2026-05-06 10:03 38.71613 24.73341 37052 ft 486 kts 174°
2026-05-06 10:03 38.64951 24.74740 37056 ft 486 kts 174°
2026-05-06 10:04 38.58268 24.76142 37054 ft 486 kts 174°
2026-05-06 10:04 38.51615 24.77535 37055 ft 486 kts 174°
2026-05-06 10:05 38.44954 24.78928 37051 ft 486 kts 174°
2026-05-06 10:05 38.38329 24.80310 37063 ft 486 kts 174°
2026-05-06 10:06 38.31672 24.81698 37057 ft 485 kts 174°
2026-05-06 10:06 38.25017 24.83080 37054 ft 484 kts 174°
2026-05-06 10:07 38.18359 24.84460 37050 ft 485 kts 174°
2026-05-06 10:07 38.11725 24.85835 37051 ft 484 kts 174°
2026-05-06 10:08 38.05075 24.87207 37056 ft 484 kts 174°
2026-05-06 10:08 37.98430 24.88581 37054 ft 483 kts 174°
2026-05-06 10:09 37.91819 24.89942 37059 ft 483 kts 174°
2026-05-06 10:09 37.85204 24.91303 37064 ft 483 kts 174°
2026-05-06 10:10 37.78577 24.92661 37064 ft 483 kts 174°
2026-05-06 10:10 37.71933 24.94022 37059 ft 483 kts 174°
2026-05-06 10:11 37.65325 24.95374 37056 ft 483 kts 174°
2026-05-06 10:11 37.58710 24.96721 37063 ft 483 kts 174°
2026-05-06 10:12 37.52072 24.98074 36969 ft 484 kts 174°
2026-05-06 10:12 37.48760 24.98748 36625 ft 481 kts 174°
2026-05-06 10:12 37.45450 24.99422 36230 ft 478 kts 174°
2026-05-06 10:13 37.42180 25.00087 35786 ft 475 kts 174°
2026-05-06 10:13 37.38929 25.00744 35167 ft 476 kts 174°
2026-05-06 10:13 37.35663 25.01403 34472 ft 479 kts 174°
2026-05-06 10:13 37.32382 25.02066 33736 ft 481 kts 174°
2026-05-06 10:14 37.29100 25.02730 32980 ft 483 kts 174°
2026-05-06 10:14 37.25761 25.03404 32194 ft 485 kts 173°
2026-05-06 10:14 37.22447 25.04074 31399 ft 487 kts 173°
2026-05-06 10:14 37.19083 25.04754 30814 ft 487 kts 173°
2026-05-06 10:15 37.15720 25.05432 30282 ft 490 kts 173°
2026-05-06 10:15 37.12355 25.06110 29780 ft 488 kts 173°
2026-05-06 10:15 37.09056 25.06776 29303 ft 485 kts 173°
2026-05-06 10:15 37.05711 25.07450 28822 ft 482 kts 173°
2026-05-06 10:16 37.02439 25.08107 28381 ft 478 kts 173°
2026-05-06 10:16 36.99160 25.08768 27945 ft 474 kts 173°
2026-05-06 10:16 36.95893 25.09425 27469 ft 471 kts 174°
2026-05-06 10:16 36.92685 25.10067 27003 ft 468 kts 173°
2026-05-06 10:17 36.89482 25.10708 26540 ft 465 kts 173°
2026-05-06 10:17 36.86297 25.11344 26074 ft 461 kts 173°
2026-05-06 10:17 36.83117 25.11980 25623 ft 458 kts 173°
2026-05-06 10:17 36.80014 25.12599 25167 ft 455 kts 173°
2026-05-06 10:18 36.76889 25.13222 24723 ft 451 kts 173°
2026-05-06 10:18 36.73794 25.13840 24288 ft 448 kts 174°
2026-05-06 10:18 36.70674 25.14462 23825 ft 445 kts 174°
2026-05-06 10:18 36.67650 25.15064 23369 ft 442 kts 174°
2026-05-06 10:19 36.64601 25.15669 22904 ft 439 kts 173°
2026-05-06 10:19 36.61582 25.16269 22427 ft 435 kts 173°
2026-05-06 10:19 36.58591 25.16862 21950 ft 432 kts 173°
2026-05-06 10:19 36.55638 25.17448 21473 ft 428 kts 173°
2026-05-06 10:20 36.52741 25.18022 21010 ft 425 kts 173°
2026-05-06 10:20 36.49795 25.18606 20532 ft 422 kts 173°
2026-05-06 10:20 36.46880 25.19183 20050 ft 418 kts 173°
2026-05-06 10:20 36.44022 25.19749 19548 ft 415 kts 173°
2026-05-06 10:21 36.41174 25.20312 19079 ft 412 kts 173°
2026-05-06 10:21 36.38369 25.20865 18625 ft 409 kts 173°
2026-05-06 10:21 36.35544 25.21424 18161 ft 406 kts 173°
2026-05-06 10:21 36.32760 25.21972 17678 ft 403 kts 173°
2026-05-06 10:22 36.29974 25.22518 17208 ft 400 kts 173°
2026-05-06 10:22 36.27220 25.23059 16754 ft 396 kts 173°
2026-05-06 10:22 36.24497 25.23594 16307 ft 393 kts 172°
2026-05-06 10:22 36.21795 25.24125 15837 ft 390 kts 172°
2026-05-06 10:23 36.19128 25.24650 15371 ft 387 kts 172°
2026-05-06 10:23 36.16481 25.25170 14917 ft 384 kts 172°
2026-05-06 10:23 36.13807 25.25695 14450 ft 381 kts 172°
2026-05-06 10:23 36.11184 25.26208 13982 ft 378 kts 172°
2026-05-06 10:24 36.08611 25.26713 13518 ft 375 kts 172°
2026-05-06 10:24 36.06033 25.27219 13045 ft 373 kts 172°
2026-05-06 10:24 36.03458 25.27724 12584 ft 370 kts 172°
2026-05-06 10:24 36.00946 25.28215 12126 ft 367 kts 171°
2026-05-06 10:25 35.98422 25.28709 11659 ft 365 kts 171°
2026-05-06 10:25 35.95923 25.29197 11183 ft 362 kts 171°
2026-05-06 10:25 35.93465 25.29676 10717 ft 360 kts 171°
2026-05-06 10:25 35.90979 25.30161 10258 ft 357 kts 171°
2026-05-06 10:26 35.88530 25.30638 9787 ft 355 kts 171°
2026-05-06 10:26 35.86107 25.31110 9313 ft 352 kts 171°
2026-05-06 10:26 35.83708 25.31577 8824 ft 349 kts 171°
2026-05-06 10:26 35.81333 25.32039 8361 ft 347 kts 171°
2026-05-06 10:27 35.78969 25.32499 8041 ft 339 kts 171°
2026-05-06 10:27 35.76640 25.32952 7795 ft 329 kts 171°
2026-05-06 10:27 35.74424 25.33383 7586 ft 319 kts 170°
2026-05-06 10:27 35.72253 25.33805 7387 ft 309 kts 170°
2026-05-06 10:28 35.70153 25.34212 7196 ft 300 kts 170°
2026-05-06 10:28 35.68128 25.34605 7001 ft 292 kts 170°
2026-05-06 10:28 35.66120 25.34994 6789 ft 291 kts 170°
2026-05-06 10:28 35.64125 25.35380 6590 ft 290 kts 170°
2026-05-06 10:29 35.62142 25.35764 6390 ft 289 kts 170°
2026-05-06 10:29 35.60155 25.36149 6185 ft 288 kts 170°
2026-05-06 10:29 35.58171 25.36533 5982 ft 286 kts 170°
2026-05-06 10:29 35.56213 25.36913 5777 ft 282 kts 170°
2026-05-06 10:30 35.54308 25.37282 5573 ft 274 kts 170°
2026-05-06 10:30 35.52444 25.37642 5372 ft 266 kts 170°
2026-05-06 10:30 35.50644 25.37989 5177 ft 259 kts 170°
2026-05-06 10:30 35.48890 25.38328 4999 ft 251 kts 170°
2026-05-06 10:31 35.47185 25.38657 4831 ft 247 kts 170°
2026-05-06 10:31 35.45485 25.39071 4660 ft 246 kts 162°
2026-05-06 10:31 35.43894 25.39807 4480 ft 244 kts 152°
2026-05-06 10:31 35.42400 25.40789 4326 ft 242 kts 149°
2026-05-06 10:32 35.40943 25.41804 4155 ft 238 kts 148°
2026-05-06 10:32 35.39524 25.42798 3982 ft 231 kts 149°
2026-05-06 10:32 35.38135 25.43708 3765 ft 226 kts 159°
2026-05-06 10:32 35.36601 25.43816 3505 ft 222 kts 199°
2026-05-06 10:33 35.35365 25.42790 3288 ft 213 kts 234°
2026-05-06 10:33 35.34691 25.41222 3139 ft 202 kts 248°
2026-05-06 10:33 35.34145 25.39678 3041 ft 193 kts 248°
2026-05-06 10:33 35.33607 25.38193 2874 ft 192 kts 247°
2026-05-06 10:34 35.33076 25.36680 2723 ft 191 kts 253°
2026-05-06 10:34 35.32870 25.35095 2580 ft 189 kts 269°
2026-05-06 10:34 35.32894 25.33538 2416 ft 177 kts 275°
2026-05-06 10:34 35.32993 25.32103 2310 ft 166 kts 277°
2026-05-06 10:35 35.33102 25.30706 2163 ft 161 kts 276°
2026-05-06 10:35 35.33200 25.29371 1910 ft 156 kts 275°
2026-05-06 10:35 35.33287 25.28072 1674 ft 147 kts 275°
2026-05-06 10:35 35.33369 25.26848 1478 ft 145 kts 275°
2026-05-06 10:36 35.33452 25.25616 1251 ft 144 kts 276°
2026-05-06 10:36 35.33535 25.24392 1039 ft 144 kts 276°
2026-05-06 10:36 35.33619 25.23159 810 ft 144 kts 275°
2026-05-06 10:36 35.33700 25.21937 580 ft 144 kts 275°
2026-05-06 10:37 35.33788 25.20695 353 ft 143 kts 276°
2026-05-06 10:37 35.33871 25.19469 196 ft 143 kts 276°
2026-05-06 10:37 35.33957 25.18249 102 ft 133 kts 276°
2026-05-06 10:37 35.34013 25.17391 96 ft 65 kts 276°
2026-05-06 10:38 35.34039 25.17036 94 ft 30 kts 275°
2026-05-06 10:38 35.34051 25.16870 94 ft 8 kts 268°
2026-05-06 10:38 35.34021 25.16845 95 ft 5 kts 156°
2026-05-06 10:38 35.33984 25.16884 97 ft 7 kts 136°
2026-05-06 10:39 35.33959 25.16931 98 ft 6 kts 109°
2026-05-06 10:39 35.33949 25.16991 98 ft 7 kts 94°
2026-05-06 10:39 35.33945 25.17084 97 ft 14 kts 94°
2026-05-06 10:39 35.33937 25.17213 98 ft 14 kts 95°
2026-05-06 10:40 35.33930 25.17315 103 ft 9 kts 95°
2026-05-06 10:40 35.33925 25.17382 107 ft 8 kts 95°
2026-05-06 10:40 35.33919 25.17474 110 ft 12 kts 95°
2026-05-06 10:40 35.33907 25.17588 110 ft 10 kts 127°
2026-05-06 10:41 35.33846 25.17597 113 ft 7 kts 184°
2026-05-06 10:41 35.33798 25.17589 116 ft 4 kts 209°
2026-05-06 10:41 35.33793 25.17560 118 ft 2 kts 274°
2026-05-06 10:41 35.33794 25.17543 119 ft 1 kts 274°
2026-05-06 10:42 35.33796 25.17535 119 ft 1 kts 284°
2026-05-06 10:42 35.33807 25.17520 119 ft 3 kts 317°
2026-05-06 10:42 35.33813 25.17514 119 ft 0 kts 317°